Time,TemperatureF,DewpointF,PressureIn,WindDirection,WindDirectionDegrees,WindSpeedMPH,WindSpeedGustMPH,Humidity,HourlyPrecipIn,Conditions,Clouds,dailyrainin,SolarRadiationWatts/m^2,SoftwareType,DateUTC
2017-08-19 00:02:00,72.6,65.0,29.96,SW,224,0.0,1.0,77,0.00,,,0.00,0,Wunderground v.1.15,2017-08-19 04:02:00,
2017-08-19 00:08:00,72.6,65.0,29.96,WNW,287,0.0,3.0,77,0.00,,,0.00,0,Wunderground v.1.15,2017-08-19 04:08:00,
2017-08-19 00:13:00,72.6,65.0,29.96,WNW,288,0.0,0.0,77,0.00,,,0.00,0,Wunderground v.1.15,2017-08-19 04:13:00,
2017-08-19 00:19:00,72.5,64.9,29.96,WNW,288,0.0,1.0,77,0.00,,,0.00,0,Wunderground v.1.15,2017-08-19 04:19:00,
2017-08-19 00:24:00,72.5,64.9,29.96,South,186,0.0,0.0,77,0.00,,,0.00,0,Wunderground v.1.15,2017-08-19 04:24:00,
2017-08-19 00:30:00,72.4,64.8,29.96,West,259,0.0,0.0,77,0.00,,,0.00,0,Wunderground v.1.15,2017-08-19 04:30:00,
2017-08-19 00:35:00,72.4,64.8,29.96,WNW,282,2.0,2.0,77,0.00,,,0.00,0,Wunderground v.1.15,2017-08-19 04:35:00,
2017-08-19 00:41:00,72.4,64.8,29.96,SW,226,0.0,0.0,77,0.00,,,0.00,0,Wunderground v.1.15,2017-08-19 04:41:00,
2017-08-19 00:46:00,72.4,64.8,29.96,NW,314,2.0,2.0,77,0.00,,,0.00,0,Wunderground v.1.15,2017-08-19 04:46:00,
2017-08-19 00:52:00,72.4,64.8,29.96,NW,326,0.0,0.0,77,0.00,,,0.00,0,Wunderground v.1.15,2017-08-19 04:52:00,
2017-08-19 00:57:00,72.4,64.8,29.96,WNW,294,2.0,3.0,77,0.00,,,0.00,0,Wunderground v.1.15,2017-08-19 04:57:00,
2017-08-19 01:02:00,72.5,64.9,29.96,SW,231,0.0,0.0,77,0.00,,,0.00,0,Wunderground v.1.15,2017-08-19 05:02:00,
2017-08-19 01:07:00,72.5,64.9,29.96,SSW,195,0.0,2.0,77,0.00,,,0.00,0,Wunderground v.1.15,2017-08-19 05:07:00,
2017-08-19 01:13:00,72.6,65.0,29.96,SW,234,2.0,2.0,77,0.00,,,0.00,0,Wunderground v.1.15,2017-08-19 05:13:00,
2017-08-19 01:19:00,72.7,65.1,29.96,SW,234,0.0,2.0,77,0.00,,,0.00,0,Wunderground v.1.15,2017-08-19 05:19:00,
2017-08-19 01:25:00,72.7,65.1,29.96,SSW,213,0.0,1.0,77,0.00,,,0.00,0,Wunderground v.1.15,2017-08-19 05:25:00,
2017-08-19 01:31:00,72.9,65.3,29.96,SSW,200,1.0,3.0,77,0.00,,,0.00,0,Wunderground v.1.15,2017-08-19 05:31:00,
2017-08-19 01:36:00,72.9,65.3,29.96,WSW,241,1.0,3.0,77,0.00,,,0.00,0,Wunderground v.1.15,2017-08-19 05:36:00,
2017-08-19 01:41:00,73.0,65.4,29.96,SW,222,1.0,1.0,77,0.00,,,0.00,0,Wunderground v.1.15,2017-08-19 05:41:00,
2017-08-19 01:47:00,73.0,65.4,29.96,West,259,0.0,3.0,77,0.00,,,0.00,0,Wunderground v.1.15,2017-08-19 05:47:00,
2017-08-19 01:53:00,73.1,65.5,29.96,West,276,0.0,1.0,77,0.00,,,0.00,0,Wunderground v.1.15,2017-08-19 05:53:00,
2017-08-19 01:59:00,73.0,65.4,29.96,West,275,0.0,1.0,77,0.00,,,0.00,0,Wunderground v.1.15,2017-08-19 05:59:00,
2017-08-19 02:04:00,73.0,65.4,29.96,WSW,238,0.0,4.0,77,0.00,,,0.00,0,Wunderground v.1.15,2017-08-19 06:04:00,
2017-08-19 02:09:00,73.0,65.4,29.96,WSW,247,0.0,4.0,77,0.00,,,0.00,0,Wunderground v.1.15,2017-08-19 06:09:00,
2017-08-19 02:14:00,73.1,65.5,29.96,WSW,250,0.0,2.0,77,0.00,,,0.00,0,Wunderground v.1.15,2017-08-19 06:14:00,
2017-08-19 02:19:00,73.2,65.6,29.96,South,172,5.0,6.0,77,0.00,,,0.00,0,Wunderground v.1.15,2017-08-19 06:19:00,
2017-08-19 02:24:00,73.2,65.6,29.96,West,264,0.0,4.0,77,0.00,,,0.00,0,Wunderground v.1.15,2017-08-19 06:24:00,
2017-08-19 02:29:00,73.2,65.6,29.96,SSW,199,1.0,6.0,77,0.00,,,0.00,0,Wunderground v.1.15,2017-08-19 06:29:00,
2017-08-19 02:34:00,73.2,65.6,29.96,SSE,155,0.0,7.0,77,0.00,,,0.00,0,Wunderground v.1.15,2017-08-19 06:34:00,
2017-08-19 02:39:00,73.3,65.7,29.96,SW,220,0.0,7.0,77,0.00,,,0.00,0,Wunderground v.1.15,2017-08-19 06:39:00,
2017-08-19 02:44:00,73.2,65.6,29.96,SW,219,0.0,1.0,77,0.00,,,0.00,0,Wunderground v.1.15,2017-08-19 06:44:00,
2017-08-19 02:49:00,73.3,65.7,29.96,SW,219,0.0,5.0,77,0.00,,,0.00,0,Wunderground v.1.15,2017-08-19 06:49:00,
2017-08-19 02:54:00,73.3,65.7,29.96,SSW,209,0.0,5.0,77,0.00,,,0.00,0,Wunderground v.1.15,2017-08-19 06:54:00,
2017-08-19 02:59:00,73.2,65.6,29.96,West,278,0.0,5.0,77,0.00,,,0.00,0,Wunderground v.1.15,2017-08-19 06:59:00,
2017-08-19 03:04:00,73.2,65.6,29.96,WSW,240,2.0,3.0,77,0.00,,,0.00,0,Wunderground v.1.15,2017-08-19 07:04:00,
2017-08-19 03:09:00,73.2,65.6,29.96,WSW,240,0.0,3.0,77,0.00,,,0.00,0,Wunderground v.1.15,2017-08-19 07:09:00,
2017-08-19 03:14:00,73.2,65.6,29.96,NNW,337,0.0,2.0,77,0.00,,,0.00,0,Wunderground v.1.15,2017-08-19 07:14:00,
2017-08-19 03:19:00,73.2,65.6,29.96,SSW,198,0.0,4.0,77,0.00,,,0.00,0,Wunderground v.1.15,2017-08-19 07:19:00,
2017-08-19 03:24:00,73.3,65.7,29.96,WSW,253,2.0,6.0,77,0.00,,,0.00,0,Wunderground v.1.15,2017-08-19 07:24:00,
2017-08-19 03:29:00,73.3,65.7,29.96,SW,214,0.0,6.0,77,0.00,,,0.00,0,Wunderground v.1.15,2017-08-19 07:29:00,
2017-08-19 03:34:00,73.3,65.7,29.96,West,274,1.0,5.0,77,0.00,,,0.00,0,Wunderground v.1.15,2017-08-19 07:34:00,
2017-08-19 03:39:00,73.4,65.7,29.96,SSW,204,1.0,7.0,77,0.00,,,0.00,0,Wunderground v.1.15,2017-08-19 07:39:00,
2017-08-19 03:44:00,73.4,65.7,29.96,West,275,1.0,4.0,77,0.00,,,0.00,0,Wunderground v.1.15,2017-08-19 07:44:00,
2017-08-19 03:49:00,73.4,65.7,29.96,West,275,0.0,4.0,77,0.00,,,0.00,0,Wunderground v.1.15,2017-08-19 07:49:00,
2017-08-19 03:54:00,73.5,65.8,29.96,ENE,75,1.0,5.0,77,0.00,,,0.00,0,Wunderground v.1.15,2017-08-19 07:54:00,
2017-08-19 03:59:00,73.5,65.8,29.96,NNE,18,2.0,5.0,77,0.00,,,0.00,0,Wunderground v.1.15,2017-08-19 07:59:00,
2017-08-19 04:04:00,73.5,65.8,29.96,SSW,212,0.0,5.0,77,0.00,,,0.00,0,Wunderground v.1.15,2017-08-19 08:04:00,
2017-08-19 04:09:00,73.6,65.9,29.96,SSE,166,3.0,5.0,77,0.00,,,0.00,0,Wunderground v.1.15,2017-08-19 08:09:00,
2017-08-19 04:14:00,73.6,65.9,29.96,SSE,168,0.0,5.0,77,0.00,,,0.00,0,Wunderground v.1.15,2017-08-19 08:14:00,
2017-08-19 04:19:00,73.6,65.9,29.96,WNW,288,0.0,5.0,77,0.00,,,0.00,0,Wunderground v.1.15,2017-08-19 08:19:00,
2017-08-19 04:24:00,73.6,65.9,29.96,SW,224,1.0,5.0,77,0.00,,,0.00,0,Wunderground v.1.15,2017-08-19 08:24:00,
2017-08-19 04:29:00,73.7,66.0,29.96,SW,225,1.0,5.0,77,0.00,,,0.00,0,Wunderground v.1.15,2017-08-19 08:29:00,
2017-08-19 04:34:00,73.7,66.0,29.96,South,191,0.0,3.0,77,0.00,,,0.00,0,Wunderground v.1.15,2017-08-19 08:34:00,
2017-08-19 04:39:00,73.7,66.0,29.96,SSW,198,0.0,5.0,77,0.00,,,0.00,0,Wunderground v.1.15,2017-08-19 08:39:00,
2017-08-19 04:44:00,73.8,66.1,29.96,SW,217,2.0,6.0,77,0.00,,,0.00,0,Wunderground v.1.15,2017-08-19 08:44:00,
2017-08-19 04:50:00,73.8,66.1,29.96,SW,215,0.0,0.0,77,0.00,,,0.00,0,Wunderground v.1.15,2017-08-19 08:50:00,
2017-08-19 04:55:00,73.8,66.1,29.96,SW,217,0.0,2.0,77,0.00,,,0.00,0,Wunderground v.1.15,2017-08-19 08:55:00,
2017-08-19 05:00:00,73.9,66.2,29.96,NW,315,0.0,1.0,77,0.00,,,0.00,0,Wunderground v.1.15,2017-08-19 09:00:00,
2017-08-19 05:05:00,73.9,66.2,29.96,NW,314,0.0,4.0,77,0.00,,,0.00,0,Wunderground v.1.15,2017-08-19 09:05:00,
2017-08-19 05:10:00,73.9,66.2,29.96,West,271,1.0,2.0,77,0.00,,,0.00,0,Wunderground v.1.15,2017-08-19 09:10:00,
2017-08-19 05:15:00,73.9,66.2,29.96,NW,308,0.0,5.0,77,0.00,,,0.00,0,Wunderground v.1.15,2017-08-19 09:15:00,
2017-08-19 05:20:00,73.9,66.2,29.96,NNW,330,0.0,0.0,77,0.00,,,0.00,0,Wunderground v.1.15,2017-08-19 09:20:00,
2017-08-19 05:25:00,74.0,66.3,29.96,NNW,329,1.0,3.0,77,0.00,,,0.00,0,Wunderground v.1.15,2017-08-19 09:25:00,
2017-08-19 05:30:00,73.9,66.2,29.96,NNW,330,2.0,3.0,77,0.00,,,0.00,0,Wunderground v.1.15,2017-08-19 09:30:00,
2017-08-19 05:35:00,73.9,66.2,29.96,NW,313,1.0,7.0,77,0.00,,,0.00,0,Wunderground v.1.15,2017-08-19 09:35:00,
2017-08-19 05:40:00,73.9,66.2,29.96,SW,220,0.0,0.0,77,0.00,,,0.00,0,Wunderground v.1.15,2017-08-19 09:40:00,
2017-08-19 05:45:00,73.9,66.2,29.96,SW,217,0.0,3.0,77,0.00,,,0.00,0,Wunderground v.1.15,2017-08-19 09:45:00,
2017-08-19 05:50:00,73.9,66.2,29.96,WNW,293,3.0,4.0,77,0.00,,,0.00,0,Wunderground v.1.15,2017-08-19 09:50:00,
2017-08-19 05:55:00,73.8,66.1,29.96,WNW,294,0.0,4.0,77,0.00,,,0.00,0,Wunderground v.1.15,2017-08-19 09:55:00,
2017-08-19 06:00:00,73.9,66.2,29.96,NW,315,0.0,1.0,77,0.00,,,0.00,0,Wunderground v.1.15,2017-08-19 10:00:00,
2017-08-19 06:05:00,73.9,66.2,29.96,NW,318,2.0,4.0,77,0.00,,,0.00,0,Wunderground v.1.15,2017-08-19 10:05:00,
2017-08-19 06:10:00,73.9,66.2,29.96,NW,319,0.0,1.0,77,0.00,,,0.00,0,Wunderground v.1.15,2017-08-19 10:10:00,
2017-08-19 06:15:00,73.9,66.2,29.96,NW,319,0.0,5.0,77,0.00,,,0.00,0,Wunderground v.1.15,2017-08-19 10:15:00,
2017-08-19 06:20:00,73.9,66.2,29.96,NW,318,0.0,0.0,77,0.00,,,0.00,0,Wunderground v.1.15,2017-08-19 10:20:00,
2017-08-19 06:25:00,73.9,66.2,29.96,NW,319,0.0,3.0,77,0.00,,,0.00,0,Wunderground v.1.15,2017-08-19 10:25:00,
2017-08-19 06:30:00,73.9,66.2,29.96,NW,319,0.0,0.0,77,0.00,,,0.00,0,Wunderground v.1.15,2017-08-19 10:30:00,
2017-08-19 06:35:00,73.9,66.2,29.96,NW,319,1.0,3.0,77,0.00,,,0.00,0,Wunderground v.1.15,2017-08-19 10:35:00,
2017-08-19 06:40:00,74.0,66.3,29.96,NW,318,0.0,0.0,77,0.00,,,0.00,0,Wunderground v.1.15,2017-08-19 10:40:00,
2017-08-19 06:45:00,74.0,66.3,29.96,NW,318,0.0,3.0,77,0.00,,,0.00,0,Wunderground v.1.15,2017-08-19 10:45:00,
2017-08-19 06:50:00,73.9,66.2,29.96,NW,318,0.0,2.0,77,0.00,,,0.00,0,Wunderground v.1.15,2017-08-19 10:50:00,
2017-08-19 06:55:00,74.0,66.3,29.96,NW,318,0.0,3.0,77,0.00,,,0.00,0,Wunderground v.1.15,2017-08-19 10:55:00,
2017-08-19 07:00:00,73.9,66.2,29.96,NW,318,0.0,0.0,77,0.00,,,0.00,0,Wunderground v.1.15,2017-08-19 11:00:00,
2017-08-19 07:05:00,73.9,66.2,29.96,NW,318,0.0,1.0,77,0.00,,,0.00,0,Wunderground v.1.15,2017-08-19 11:05:00,
2017-08-19 07:10:00,74.0,66.3,29.96,NW,309,0.0,0.0,77,0.00,,,0.00,0,Wunderground v.1.15,2017-08-19 11:10:00,
2017-08-19 07:15:00,74.0,66.3,29.96,NW,309,0.0,2.0,77,0.00,,,0.00,0,Wunderground v.1.15,2017-08-19 11:15:00,
2017-08-19 07:20:00,74.0,66.3,29.96,NW,309,1.0,2.0,77,0.00,,,0.00,0,Wunderground v.1.15,2017-08-19 11:20:00,
2017-08-19 07:25:00,74.1,66.4,29.96,NNW,342,1.0,3.0,77,0.00,,,0.00,0,Wunderground v.1.15,2017-08-19 11:25:00,
2017-08-19 07:30:00,74.0,66.3,29.96,NW,309,0.0,2.0,77,0.00,,,0.00,0,Wunderground v.1.15,2017-08-19 11:30:00,
2017-08-19 07:35:00,74.0,66.3,29.96,NW,317,0.0,4.0,77,0.00,,,0.00,0,Wunderground v.1.15,2017-08-19 11:35:00,
2017-08-19 07:40:00,74.1,66.4,29.96,NW,316,1.0,1.0,77,0.00,,,0.00,0,Wunderground v.1.15,2017-08-19 11:40:00,
2017-08-19 07:45:00,74.1,66.4,29.96,NW,316,0.0,4.0,77,0.00,,,0.00,0,Wunderground v.1.15,2017-08-19 11:45:00,
2017-08-19 07:50:00,74.2,66.5,29.96,NW,316,0.0,0.0,77,0.00,,,0.00,0,Wunderground v.1.15,2017-08-19 11:50:00,
2017-08-19 07:55:00,74.3,66.6,29.96,NW,314,0.0,3.0,77,0.00,,,0.00,0,Wunderground v.1.15,2017-08-19 11:55:00,
2017-08-19 08:00:00,74.3,66.6,29.96,NNW,329,0.0,0.0,77,0.00,,,0.00,0,Wunderground v.1.15,2017-08-19 12:00:00,
2017-08-19 08:05:00,74.4,66.7,29.96,NNW,329,1.0,4.0,77,0.00,,,0.00,0,Wunderground v.1.15,2017-08-19 12:05:00,
2017-08-19 08:10:00,74.4,66.7,29.96,NNW,329,4.0,4.0,77,0.00,,,0.00,0,Wunderground v.1.15,2017-08-19 12:10:00,
2017-08-19 08:15:00,74.5,66.8,29.96,NNW,331,1.0,4.0,77,0.00,,,0.00,0,Wunderground v.1.15,2017-08-19 12:15:00,
2017-08-19 08:20:00,74.6,66.9,29.96,NNW,329,0.0,0.0,77,0.00,,,0.00,0,Wunderground v.1.15,2017-08-19 12:20:00,
2017-08-19 08:25:00,74.6,66.9,29.96,NNW,327,2.0,5.0,77,0.00,,,0.00,0,Wunderground v.1.15,2017-08-19 12:25:00,
2017-08-19 08:30:00,74.7,67.0,29.96,NNW,327,0.0,1.0,77,0.00,,,0.00,0,Wunderground v.1.15,2017-08-19 12:30:00,
2017-08-19 08:35:00,74.8,67.1,29.96,NNW,327,0.0,4.0,77,0.00,,,0.00,0,Wunderground v.1.15,2017-08-19 12:35:00,
2017-08-19 08:40:00,75.0,67.3,29.96,NNW,327,2.0,4.0,77,0.00,,,0.00,0,Wunderground v.1.15,2017-08-19 12:40:00,
2017-08-19 08:45:00,75.1,67.4,29.96,NW,322,2.0,4.0,77,0.00,,,0.00,0,Wunderground v.1.15,2017-08-19 12:45:00,
2017-08-19 08:50:00,75.1,67.4,29.96,NW,320,1.0,2.0,77,0.00,,,0.00,0,Wunderground v.1.15,2017-08-19 12:50:00,
2017-08-19 08:55:00,75.4,67.7,29.96,NW,320,0.0,2.0,77,0.00,,,0.00,0,Wunderground v.1.15,2017-08-19 12:55:00,
2017-08-19 09:00:00,75.4,67.7,29.96,NW,320,0.0,0.0,77,0.00,,,0.00,0,Wunderground v.1.15,2017-08-19 13:00:00,
2017-08-19 09:05:00,75.7,68.0,29.96,NW,320,0.0,0.0,77,0.00,,,0.00,0,Wunderground v.1.15,2017-08-19 13:05:00,
2017-08-19 09:10:00,75.8,68.1,29.96,NW,319,0.0,2.0,77,0.00,,,0.00,0,Wunderground v.1.15,2017-08-19 13:10:00,
2017-08-19 09:15:00,76.2,68.5,29.96,NW,319,1.0,3.0,77,0.00,,,0.00,0,Wunderground v.1.15,2017-08-19 13:15:00,
2017-08-19 09:20:00,76.6,68.8,29.96,NW,319,0.0,0.0,77,0.00,,,0.00,0,Wunderground v.1.15,2017-08-19 13:20:00,
2017-08-19 09:25:00,77.1,69.3,29.96,NW,319,0.0,0.0,77,0.00,,,0.00,0,Wunderground v.1.15,2017-08-19 13:25:00,
2017-08-19 09:30:00,77.5,69.7,29.96,NW,319,0.0,0.0,77,0.00,,,0.00,0,Wunderground v.1.15,2017-08-19 13:30:00,
2017-08-19 09:35:00,77.6,69.8,29.96,NW,319,0.0,4.0,77,0.00,,,0.00,0,Wunderground v.1.15,2017-08-19 13:35:00,
2017-08-19 09:40:00,77.9,70.1,29.96,NW,319,0.0,0.0,77,0.00,,,0.00,0,Wunderground v.1.15,2017-08-19 13:40:00,
2017-08-19 09:45:00,78.1,70.3,29.96,NW,319,0.0,0.0,77,0.00,,,0.00,0,Wunderground v.1.15,2017-08-19 13:45:00,
2017-08-19 09:50:00,78.6,70.8,29.96,NW,319,0.0,0.0,77,0.00,,,0.00,0,Wunderground v.1.15,2017-08-19 13:50:00,
2017-08-19 09:55:00,79.2,71.4,29.96,NW,319,1.0,3.0,77,0.00,,,0.00,0,Wunderground v.1.15,2017-08-19 13:55:00,
2017-08-19 10:01:00,79.4,71.6,29.96,NW,319,0.0,0.0,77,0.00,,,0.00,0,Wunderground v.1.15,2017-08-19 14:01:00,
2017-08-19 10:02:00,79.5,71.7,29.96,NW,319,0.0,1.0,77,0.00,,,0.00,0,Wunderground v.1.15,2017-08-19 14:02:00,
2017-08-19 10:07:00,80.2,72.3,29.96,NW,319,0.0,1.0,77,0.00,,,0.00,0,Wunderground v.1.15,2017-08-19 14:07:00,
2017-08-19 10:12:00,80.6,72.7,29.96,WNW,298,0.0,6.0,77,0.00,,,0.00,0,Wunderground v.1.15,2017-08-19 14:12:00,
2017-08-19 10:17:00,81.1,73.2,29.96,North,2,2.0,6.0,77,0.00,,,0.00,0,Wunderground v.1.15,2017-08-19 14:17:00,
2017-08-19 10:22:00,81.9,74.0,29.96,North,1,0.0,3.0,77,0.00,,,0.00,0,Wunderground v.1.15,2017-08-19 14:22:00,
2017-08-19 10:27:00,82.1,74.2,29.96,North,352,0.0,4.0,77,0.00,,,0.00,0,Wunderground v.1.15,2017-08-19 14:27:00,
2017-08-19 10:32:00,82.8,74.8,29.96,North,352,0.0,2.0,77,0.00,,,0.00,0,Wunderground v.1.15,2017-08-19 14:32:00,
2017-08-19 10:37:00,83.1,75.1,29.96,WSW,242,1.0,4.0,77,0.00,,,0.00,0,Wunderground v.1.15,2017-08-19 14:37:00,
2017-08-19 10:42:00,83.1,75.1,29.96,WSW,246,0.0,2.0,77,0.00,,,0.00,0,Wunderground v.1.15,2017-08-19 14:42:00,
2017-08-19 10:47:00,83.5,75.5,29.96,WSW,246,0.0,2.0,77,0.00,,,0.00,0,Wunderground v.1.15,2017-08-19 14:47:00,
2017-08-19 10:52:00,83.6,75.6,29.96,WSW,246,3.0,3.0,77,0.00,,,0.00,0,Wunderground v.1.15,2017-08-19 14:52:00,
2017-08-19 10:57:00,83.4,75.4,29.96,WSW,244,0.0,3.0,77,0.00,,,0.00,0,Wunderground v.1.15,2017-08-19 14:57:00,
2017-08-19 11:02:00,83.6,75.6,29.96,WSW,244,2.0,3.0,77,0.00,,,0.00,0,Wunderground v.1.15,2017-08-19 15:02:00,
2017-08-19 11:07:00,83.5,75.5,29.96,SW,232,0.0,4.0,77,0.00,,,0.00,0,Wunderground v.1.15,2017-08-19 15:07:00,
2017-08-19 11:12:00,84.0,76.0,29.96,SW,232,0.0,1.0,77,0.00,,,0.00,0,Wunderground v.1.15,2017-08-19 15:12:00,
2017-08-19 11:17:00,84.3,76.3,29.96,SW,232,2.0,2.0,77,0.00,,,0.00,0,Wunderground v.1.15,2017-08-19 15:17:00,
2017-08-19 11:22:00,85.0,77.0,29.96,SW,236,1.0,2.0,77,0.00,,,0.00,0,Wunderground v.1.15,2017-08-19 15:22:00,
2017-08-19 11:27:00,85.5,77.5,29.96,SW,235,0.0,3.0,77,0.00,,,0.00,0,Wunderground v.1.15,2017-08-19 15:27:00,
2017-08-19 11:32:00,85.0,77.0,29.96,SW,215,0.0,4.0,77,0.00,,,0.00,0,Wunderground v.1.15,2017-08-19 15:32:00,
2017-08-19 11:37:00,84.9,76.9,29.96,SSW,197,2.0,4.0,77,0.00,,,0.00,0,Wunderground v.1.15,2017-08-19 15:37:00,
2017-08-19 11:42:00,84.8,76.8,29.96,WNW,293,1.0,5.0,77,0.00,,,0.00,0,Wunderground v.1.15,2017-08-19 15:42:00,
2017-08-19 11:47:00,85.1,77.1,29.96,WSW,240,0.0,5.0,77,0.00,,,0.00,0,Wunderground v.1.15,2017-08-19 15:47:00,
2017-08-19 11:52:00,84.8,76.8,29.96,WSW,241,2.0,4.0,77,0.00,,,0.00,0,Wunderground v.1.15,2017-08-19 15:52:00,
2017-08-19 11:57:00,85.7,77.7,29.96,WSW,245,0.0,4.0,77,0.00,,,0.00,0,Wunderground v.1.15,2017-08-19 15:57:00,
2017-08-19 12:02:00,86.0,77.9,29.96,WSW,248,3.0,4.0,77,0.00,,,0.00,0,Wunderground v.1.15,2017-08-19 16:02:00,
2017-08-19 12:07:00,86.0,77.9,29.96,SSW,200,1.0,5.0,77,0.00,,,0.00,0,Wunderground v.1.15,2017-08-19 16:07:00,
2017-08-19 12:12:00,86.0,77.9,29.96,SSE,160,3.0,6.0,77,0.00,,,0.00,0,Wunderground v.1.15,2017-08-19 16:12:00,
2017-08-19 12:17:00,85.5,77.5,29.96,SSE,153,1.0,7.0,77,0.00,,,0.00,0,Wunderground v.1.15,2017-08-19 16:17:00,
2017-08-19 12:23:00,85.0,77.0,29.96,North,358,2.0,5.0,77,0.00,,,0.00,0,Wunderground v.1.15,2017-08-19 16:23:00,
2017-08-19 12:28:00,84.9,76.9,29.96,North,0,2.0,5.0,77,0.00,,,0.00,0,Wunderground v.1.15,2017-08-19 16:28:00,
2017-08-19 12:33:00,84.7,76.7,29.96,North,0,0.0,2.0,77,0.00,,,0.00,0,Wunderground v.1.15,2017-08-19 16:33:00,
2017-08-19 12:38:00,84.7,76.7,29.96,North,0,1.0,3.0,77,0.00,,,0.00,0,Wunderground v.1.15,2017-08-19 16:38:00,
2017-08-19 12:43:00,84.1,76.1,29.96,North,0,0.0,1.0,77,0.00,,,0.00,0,Wunderground v.1.15,2017-08-19 16:43:00,
2017-08-19 12:48:00,84.6,76.6,29.96,South,173,1.0,4.0,77,0.00,,,0.00,0,Wunderground v.1.15,2017-08-19 16:48:00,
2017-08-19 12:53:00,85.4,77.4,29.96,SE,135,8.0,8.0,77,0.00,,,0.00,0,Wunderground v.1.15,2017-08-19 16:53:00,
2017-08-19 12:58:00,86.0,77.9,29.96,ESE,119,0.0,8.0,77,0.00,,,0.00,0,Wunderground v.1.15,2017-08-19 16:58:00,
2017-08-19 13:03:00,86.6,78.5,29.96,NNW,332,0.0,5.0,77,0.00,,,0.00,0,Wunderground v.1.15,2017-08-19 17:03:00,
2017-08-19 13:08:00,86.9,78.8,29.96,SSW,204,1.0,5.0,77,0.00,,,0.00,0,Wunderground v.1.15,2017-08-19 17:08:00,
2017-08-19 13:13:00,86.4,78.3,29.96,WSW,238,1.0,6.0,77,0.00,,,0.00,0,Wunderground v.1.15,2017-08-19 17:13:00,
2017-08-19 13:18:00,86.2,78.1,29.96,WSW,238,0.0,6.0,77,0.00,,,0.00,0,Wunderground v.1.15,2017-08-19 17:18:00,
2017-08-19 13:23:00,86.1,78.0,29.96,WSW,238,0.0,3.0,77,0.00,,,0.00,0,Wunderground v.1.15,2017-08-19 17:23:00,
2017-08-19 13:28:00,86.4,78.3,29.96,WSW,238,0.0,3.0,77,0.00,,,0.00,0,Wunderground v.1.15,2017-08-19 17:28:00,
2017-08-19 13:33:00,87.2,79.1,29.96,West,280,3.0,7.0,77,0.00,,,0.00,0,Wunderground v.1.15,2017-08-19 17:33:00,
2017-08-19 13:38:00,87.5,79.4,29.96,South,185,3.0,7.0,77,0.00,,,0.00,0,Wunderground v.1.15,2017-08-19 17:38:00,
2017-08-19 13:43:00,87.6,79.5,29.96,South,186,0.0,1.0,77,0.00,,,0.00,0,Wunderground v.1.15,2017-08-19 17:43:00,
2017-08-19 13:48:00,87.2,79.1,29.96,South,191,0.0,2.0,77,0.00,,,0.00,0,Wunderground v.1.15,2017-08-19 17:48:00,
2017-08-19 13:52:00,87.3,79.2,29.96,West,278,2.0,4.0,77,0.00,,,0.00,0,Wunderground v.1.15,2017-08-19 17:52:00,
2017-08-19 13:58:00,87.4,79.3,29.96,WNW,290,0.0,4.0,77,0.00,,,0.00,0,Wunderground v.1.15,2017-08-19 17:58:00,
2017-08-19 14:03:00,87.7,79.6,29.96,WNW,303,1.0,6.0,77,0.00,,,0.00,0,Wunderground v.1.15,2017-08-19 18:03:00,
2017-08-19 14:08:00,88.0,79.9,29.96,North,351,0.0,6.0,77,0.00,,,0.00,0,Wunderground v.1.15,2017-08-19 18:08:00,
2017-08-19 14:13:00,88.3,80.2,29.96,NNW,347,0.0,4.0,77,0.00,,,0.00,0,Wunderground v.1.15,2017-08-19 18:13:00,
2017-08-19 14:18:00,88.0,79.9,29.96,NNW,346,1.0,4.0,77,0.00,,,0.00,0,Wunderground v.1.15,2017-08-19 18:18:00,
2017-08-19 14:23:00,87.2,79.1,29.96,SSW,199,0.0,6.0,77,0.00,,,0.00,0,Wunderground v.1.15,2017-08-19 18:23:00,
2017-08-19 14:28:00,87.3,79.2,29.96,NW,315,2.0,6.0,77,0.00,,,0.00,0,Wunderground v.1.15,2017-08-19 18:28:00,
2017-08-19 14:34:00,87.6,79.5,29.96,SSE,153,0.0,5.0,77,0.00,,,0.00,0,Wunderground v.1.15,2017-08-19 18:34:00,
2017-08-19 14:39:00,88.9,80.7,29.96,NW,307,3.0,6.0,77,0.00,,,0.00,0,Wunderground v.1.15,2017-08-19 18:39:00,
2017-08-19 14:44:00,89.2,81.0,29.96,SW,215,3.0,7.0,77,0.00,,,0.00,0,Wunderground v.1.15,2017-08-19 18:44:00,
2017-08-19 14:49:00,89.1,80.9,29.96,NNW,346,2.0,8.0,77,0.00,,,0.00,0,Wunderground v.1.15,2017-08-19 18:49:00,
2017-08-19 14:54:00,88.7,80.6,29.96,North,353,2.0,6.0,77,0.00,,,0.00,0,Wunderground v.1.15,2017-08-19 18:54:00,
2017-08-19 14:59:00,88.5,80.4,29.96,WNW,303,4.0,6.0,77,0.00,,,0.00,0,Wunderground v.1.15,2017-08-19 18:59:00,
2017-08-19 15:04:00,88.6,80.5,29.96,NE,35,1.0,6.0,77,0.00,,,0.00,0,Wunderground v.1.15,2017-08-19 19:04:00,
2017-08-19 15:09:00,88.7,80.6,29.96,NNW,330,2.0,7.0,77,0.00,,,0.00,0,Wunderground v.1.15,2017-08-19 19:09:00,
2017-08-19 15:14:00,89.1,80.9,29.96,NNW,330,5.0,7.0,77,0.00,,,0.00,0,Wunderground v.1.15,2017-08-19 19:14:00,
2017-08-19 15:19:00,88.9,80.7,29.96,NNE,33,1.0,8.0,77,0.00,,,0.00,0,Wunderground v.1.15,2017-08-19 19:19:00,
2017-08-19 15:24:00,88.1,80.0,29.96,WNW,291,2.0,6.0,77,0.00,,,0.00,0,Wunderground v.1.15,2017-08-19 19:24:00,
2017-08-19 15:29:00,87.7,79.6,29.96,South,185,0.0,6.0,77,0.00,,,0.00,0,Wunderground v.1.15,2017-08-19 19:29:00,
2017-08-19 15:34:00,88.3,80.2,29.96,NW,323,3.0,7.0,77,0.00,,,0.00,0,Wunderground v.1.15,2017-08-19 19:34:00,
2017-08-19 15:39:00,89.3,81.1,29.96,NE,35,0.0,7.0,77,0.00,,,0.00,0,Wunderground v.1.15,2017-08-19 19:39:00,
2017-08-19 15:44:00,89.7,81.5,29.96,NW,311,2.0,5.0,77,0.00,,,0.00,0,Wunderground v.1.15,2017-08-19 19:44:00,
2017-08-19 15:49:00,88.5,80.4,29.96,SSE,161,0.0,6.0,77,0.00,,,0.00,0,Wunderground v.1.15,2017-08-19 19:49:00,
2017-08-19 15:54:00,87.9,79.8,29.96,SW,226,2.0,6.0,77,0.00,,,0.00,0,Wunderground v.1.15,2017-08-19 19:54:00,
2017-08-19 15:59:00,87.9,79.8,29.96,SSW,200,1.0,7.0,77,0.00,,,0.00,0,Wunderground v.1.15,2017-08-19 19:59:00,
2017-08-19 16:04:00,88.4,80.3,29.96,West,259,3.0,3.0,77,0.00,,,0.00,0,Wunderground v.1.15,2017-08-19 20:04:00,
2017-08-19 16:09:00,88.2,80.1,29.96,North,0,1.0,6.0,77,0.00,,,0.00,0,Wunderground v.1.15,2017-08-19 20:09:00,
2017-08-19 16:14:00,88.5,80.4,29.96,WNW,302,1.0,9.0,77,0.00,,,0.00,0,Wunderground v.1.15,2017-08-19 20:14:00,
2017-08-19 16:19:00,88.2,80.1,29.96,NNW,342,0.0,11.0,77,0.00,,,0.00,0,Wunderground v.1.15,2017-08-19 20:19:00,
2017-08-19 16:24:00,88.0,79.9,29.96,South,170,4.0,6.0,77,0.00,,,0.00,0,Wunderground v.1.15,2017-08-19 20:24:00,
2017-08-19 16:29:00,87.8,79.7,29.96,SW,216,2.0,7.0,77,0.00,,,0.00,0,Wunderground v.1.15,2017-08-19 20:29:00,
2017-08-19 16:34:00,88.2,80.1,29.96,NW,317,1.0,6.0,77,0.00,,,0.00,0,Wunderground v.1.15,2017-08-19 20:34:00,
2017-08-19 16:39:00,88.9,80.7,29.96,ENE,71,2.0,6.0,77,0.00,,,0.00,0,Wunderground v.1.15,2017-08-19 20:39:00,
2017-08-19 16:44:00,88.8,80.7,29.96,WNW,299,1.0,3.0,77,0.00,,,0.00,0,Wunderground v.1.15,2017-08-19 20:44:00,
2017-08-19 16:49:00,88.6,80.5,29.96,ESE,103,3.0,5.0,77,0.00,,,0.00,0,Wunderground v.1.15,2017-08-19 20:49:00,
2017-08-19 16:54:00,89.1,80.9,29.96,South,181,0.0,6.0,77,0.00,,,0.00,0,Wunderground v.1.15,2017-08-19 20:54:00,
2017-08-19 16:59:00,88.8,80.7,29.96,SSW,204,4.0,6.0,77,0.00,,,0.00,0,Wunderground v.1.15,2017-08-19 20:59:00,
2017-08-19 17:04:00,88.5,80.4,29.96,South,171,0.0,3.0,77,0.00,,,0.00,0,Wunderground v.1.15,2017-08-19 21:04:00,
2017-08-19 17:09:00,88.3,80.2,29.96,South,176,0.0,4.0,77,0.00,,,0.00,0,Wunderground v.1.15,2017-08-19 21:09:00,
2017-08-19 17:14:00,88.0,79.9,29.96,South,176,1.0,4.0,77,0.00,,,0.00,0,Wunderground v.1.15,2017-08-19 21:14:00,
2017-08-19 17:19:00,88.0,79.9,29.96,South,176,0.0,4.0,77,0.00,,,0.00,0,Wunderground v.1.15,2017-08-19 21:19:00,
2017-08-19 17:24:00,88.2,80.1,29.96,South,191,0.0,4.0,77,0.00,,,0.00,0,Wunderground v.1.15,2017-08-19 21:24:00,
2017-08-19 17:29:00,88.6,80.5,29.96,South,190,0.0,4.0,77,0.00,,,0.00,0,Wunderground v.1.15,2017-08-19 21:29:00,
2017-08-19 17:34:00,88.4,80.3,29.96,SSW,198,1.0,3.0,77,0.00,,,0.00,0,Wunderground v.1.15,2017-08-19 21:34:00,
2017-08-19 17:39:00,88.1,80.0,29.96,SSW,206,0.0,5.0,77,0.00,,,0.00,0,Wunderground v.1.15,2017-08-19 21:39:00,
2017-08-19 17:44:00,88.5,80.4,29.96,SSW,206,1.0,2.0,77,0.00,,,0.00,0,Wunderground v.1.15,2017-08-19 21:44:00,
2017-08-19 17:49:00,88.6,80.5,29.96,WNW,292,1.0,4.0,77,0.00,,,0.00,0,Wunderground v.1.15,2017-08-19 21:49:00,
2017-08-19 17:54:00,88.4,80.3,29.96,WNW,291,0.0,3.0,77,0.00,,,0.00,0,Wunderground v.1.15,2017-08-19 21:54:00,
2017-08-19 17:59:00,88.3,80.2,29.96,SE,144,1.0,5.0,77,0.00,,,0.00,0,Wunderground v.1.15,2017-08-19 21:59:00,
2017-08-19 18:04:00,88.7,80.6,29.96,SE,142,0.0,1.0,77,0.00,,,0.00,0,Wunderground v.1.15,2017-08-19 22:04:00,
2017-08-19 18:09:00,89.1,80.9,29.96,SE,142,0.0,1.0,77,0.00,,,0.00,0,Wunderground v.1.15,2017-08-19 22:09:00,
2017-08-19 18:14:00,89.3,81.1,29.96,ESE,103,0.0,3.0,77,0.00,,,0.00,0,Wunderground v.1.15,2017-08-19 22:14:00,
2017-08-19 18:19:00,89.7,81.5,29.96,ESE,102,0.0,3.0,77,0.00,,,0.00,0,Wunderground v.1.15,2017-08-19 22:19:00,
2017-08-19 18:24:00,89.4,81.2,29.96,ESE,102,0.0,2.0,77,0.00,,,0.00,0,Wunderground v.1.15,2017-08-19 22:24:00,
2017-08-19 18:30:00,88.7,80.6,29.96,ESE,102,0.0,0.0,77,0.00,,,0.00,0,Wunderground v.1.15,2017-08-19 22:30:00,
2017-08-19 18:35:00,87.3,79.2,29.96,NNE,20,0.0,2.0,77,0.00,,,0.00,0,Wunderground v.1.15,2017-08-19 22:35:00,
2017-08-19 18:40:00,86.2,78.1,29.96,NNE,20,0.0,0.0,77,0.00,,,0.00,0,Wunderground v.1.15,2017-08-19 22:40:00,
2017-08-19 18:45:00,85.7,77.7,29.96,NNE,20,0.0,1.0,77,0.00,,,0.00,0,Wunderground v.1.15,2017-08-19 22:45:00,
2017-08-19 18:50:00,85.0,77.0,29.96,NNE,20,0.0,0.0,77,0.00,,,0.00,0,Wunderground v.1.15,2017-08-19 22:50:00,
2017-08-19 18:55:00,84.2,76.2,29.96,NNE,20,0.0,0.0,77,0.00,,,0.00,0,Wunderground v.1.15,2017-08-19 22:55:00,
2017-08-19 19:00:00,84.1,76.1,29.96,NNE,20,0.0,0.0,77,0.00,,,0.00,0,Wunderground v.1.15,2017-08-19 23:00:00,
2017-08-19 19:05:00,83.6,75.6,29.96,NNE,20,0.0,0.0,77,0.00,,,0.00,0,Wunderground v.1.15,2017-08-19 23:05:00,
2017-08-19 19:10:00,82.7,74.8,29.96,NNE,20,0.0,0.0,77,0.00,,,0.00,0,Wunderground v.1.15,2017-08-19 23:10:00,
2017-08-19 19:15:00,82.0,74.1,29.96,NNE,20,0.0,0.0,77,0.00,,,0.00,0,Wunderground v.1.15,2017-08-19 23:15:00,
2017-08-19 19:16:00,81.9,74.0,29.96,NNE,20,0.0,0.0,77,0.00,,,0.00,0,Wunderground v.1.15,2017-08-19 23:16:00,
2017-08-19 19:21:00,81.3,73.4,29.96,NNE,20,0.0,0.0,77,0.00,,,0.00,0,Wunderground v.1.15,2017-08-19 23:21:00,
2017-08-19 19:26:00,80.7,72.8,29.96,NNE,20,0.0,0.0,77,0.00,,,0.00,0,Wunderground v.1.15,2017-08-19 23:26:00,
2017-08-19 19:31:00,80.1,72.2,29.96,NNE,20,0.0,0.0,77,0.00,,,0.00,0,Wunderground v.1.15,2017-08-19 23:31:00,
2017-08-19 19:36:00,79.5,71.7,29.96,NNE,20,0.0,0.0,77,0.00,,,0.00,0,Wunderground v.1.15,2017-08-19 23:36:00,
2017-08-19 19:41:00,78.9,71.1,29.96,NNE,20,0.0,0.0,77,0.00,,,0.00,0,Wunderground v.1.15,2017-08-19 23:41:00,
2017-08-19 19:46:00,78.3,70.5,29.96,NNE,20,0.0,0.0,77,0.00,,,0.00,0,Wunderground v.1.15,2017-08-19 23:46:00,
2017-08-19 19:51:00,77.9,70.1,29.96,NNE,20,0.0,0.0,77,0.00,,,0.00,0,Wunderground v.1.15,2017-08-19 23:51:00,
2017-08-19 19:56:00,77.5,69.7,29.96,NNE,20,0.0,0.0,77,0.00,,,0.00,0,Wunderground v.1.15,2017-08-19 23:56:00,
2017-08-19 20:01:00,77.1,69.3,29.96,NNE,20,0.0,0.0,77,0.00,,,0.00,0,Wunderground v.1.15,2017-08-20 00:01:00,
2017-08-19 20:06:00,76.9,69.1,29.96,NNE,20,0.0,0.0,77,0.00,,,0.00,0,Wunderground v.1.15,2017-08-20 00:06:00,
2017-08-19 20:11:00,76.7,68.9,29.96,NNE,20,0.0,0.0,77,0.00,,,0.00,0,Wunderground v.1.15,2017-08-20 00:11:00,
2017-08-19 20:15:00,76.7,68.9,29.96,NNE,20,0.0,0.0,77,0.00,,,0.00,0,Wunderground v.1.15,2017-08-20 00:15:00,
2017-08-19 20:20:00,76.5,68.7,29.96,NNE,20,0.0,0.0,77,0.00,,,0.00,0,Wunderground v.1.15,2017-08-20 00:20:00,
2017-08-19 20:25:00,76.5,68.7,29.96,NNE,20,0.0,0.0,77,0.00,,,0.00,0,Wunderground v.1.15,2017-08-20 00:25:00,
2017-08-19 20:30:00,76.2,68.5,29.96,NNE,20,0.0,0.0,77,0.00,,,0.00,0,Wunderground v.1.15,2017-08-20 00:30:00,
2017-08-19 20:35:00,75.9,68.2,29.96,NNE,20,0.0,0.0,77,0.00,,,0.00,0,Wunderground v.1.15,2017-08-20 00:35:00,
2017-08-19 20:40:00,75.5,67.8,29.96,NNE,20,2.0,2.0,77,0.00,,,0.00,0,Wunderground v.1.15,2017-08-20 00:40:00,
2017-08-19 20:45:00,75.3,67.6,29.96,NNE,18,0.0,2.0,77,0.00,,,0.00,0,Wunderground v.1.15,2017-08-20 00:45:00,
2017-08-19 20:50:00,74.9,67.2,29.96,NNE,18,0.0,0.0,77,0.00,,,0.00,0,Wunderground v.1.15,2017-08-20 00:50:00,
2017-08-19 20:51:00,74.9,67.2,29.96,NNE,18,0.0,0.0,77,0.00,,,0.00,0,Wunderground v.1.15,2017-08-20 00:51:00,
2017-08-19 20:56:00,74.6,66.9,29.96,NNE,18,0.0,0.0,77,0.00,,,0.00,0,Wunderground v.1.15,2017-08-20 00:56:00,
2017-08-19 21:01:00,74.4,66.7,29.96,NNE,18,0.0,0.0,77,0.00,,,0.00,0,Wunderground v.1.15,2017-08-20 01:01:00,
2017-08-19 21:06:00,74.4,66.7,29.96,NNE,18,0.0,0.0,77,0.00,,,0.00,0,Wunderground v.1.15,2017-08-20 01:06:00,
2017-08-19 21:11:00,74.3,66.6,29.96,NNE,18,0.0,0.0,77,0.00,,,0.00,0,Wunderground v.1.15,2017-08-20 01:11:00,